Tracking 28790 objects as of 19-Apr-2024
HD Live streaming from Space Station
objects crossing your sky now

STARLINK-2238

Track STARLINK-2238 now!
10-day predictions
STARLINK-2238 is classified as:


NORAD ID: 48584
Int'l Code: 2021-041AH
Perigee: 553.6 km
Apogee: 555.2 km
Inclination: 53.1 °
Period: 95.6 minutes
Semi major axis: 6925 km
RCS: Unknown
Launch date: May 15, 2021
Source: United States (US)
Launch site: AIR FORCE EASTERN TEST RANGE (AFETR)
Your satellite tracking list
Your tracking list is empty




NASA's NSSDC Master Catalog

Two Line Element Set (TLE):
1 48584U 21041AH  24109.86162296  .00007344  00000-0  51173-3 0  9991
2 48584  53.0554 358.3717 0001173  93.1133 266.9990 15.06376278161485
Source of the keplerian elements: AFSPC